Flag for Peru Weather past 2 weeks in Arequipa, Arequipa, Peru

Now
50 °F

Clear.


Feels Like: 47 °F
Forecast: 49 / 72 °F
Wind: 7 mph from Northwest

Location: Arequipa Airport

Current Time: Aug 27, 2014 at 3:55:29 AM

Latest Report: Aug 27, 2014 at 3:00 AM


Visibility: 10 mi

Pressure: 30.33 "Hg

Humidity: 24%

Dew point: 14 °F

Location of ArequipaLocation

Historic Weather in Arequipa — Graph

°F

Arequipa temperature yesterday

Maximum temperature yesterday: 68 °F (at 3:00 PM)
Minimum temperature yesterday: 45 °F (at 6:00 AM)
Average temperature yesterday: 56 °F

Past Weeks' High & Low Weather Summary

 TemperatureHumidityPressure
High73 °F (Aug 16, 11:00 AM)43% (Aug 15, 4:00 AM)30.39 "Hg (Aug 15, 4:00 AM)
Low43 °F (Aug 22, 5:00 AM)10% (Aug 24, 11:00 AM)30.21 "Hg (Aug 24, 2:00 PM)
Average59 °F23%30.30 "Hg
* Reported Aug 12 3:00 AM — Aug 27 3:00 AM, Arequipa, Weather by CustomWeather, © 2014

Note: Actual official high and low records may vary slightly from our data, if they occured in-between our weather recording intervals... More about our weather records

Advertising

Arequipa weather history for previous 24 hours

 ConditionsComfort  
Time TempWeatherWind HumidityBarometerVisibility
3:00 AM
Aug 27
50 °FClear.7 mph24%30.33 "Hg10 mi
2:00 AM48 °FClear.5 mph21%30.33 "Hg10 mi
1:00 AM48 °FClear.8 mph23%30.33 "Hg10 mi
12:00 AM50 °FClear.8 mph25%30.36 "Hg10 mi
11:00 PM
Aug 26
52 °FClear.7 mph24%30.36 "Hg10 mi
10:00 PM50 °FClear.5 mph28%30.39 "Hg10 mi
9:00 PM54 °FClear.7 mph24%30.36 "Hg10 mi
8:00 PM54 °FClear.8 mph26%30.36 "Hg10 mi
7:00 PM54 °FClear.No wind28%30.36 "Hg10 mi
6:00 PM57 °FClear.8 mph25%30.33 "Hg10 mi
5:00 PM61 °FPassing clouds.9 mph20%30.33 "HgN/A
4:00 PM68 °FSunny.No wind13%30.30 "Hg10 mi
3:00 PM68 °FSunny.No wind13%30.30 "Hg10 mi
2:00 PM66 °FPassing clouds.10 mph12%30.30 "HgN/A
1:00 PM66 °FPassing clouds.10 mph13%30.33 "HgN/A
12:00 PM66 °FPassing clouds.12 mph13%30.33 "HgN/A
11:00 AM66 °FPassing clouds.9 mph11%30.33 "HgN/A
10:00 AM64 °FPassing clouds.9 mph11%30.33 "HgN/A
9:00 AM64 °FSunny.No wind11%30.33 "Hg10 mi
8:00 AM59 °FSunny.No wind12%30.33 "Hg10 mi
7:00 AM48 °FSunny.7 mph17%30.33 "Hg10 mi
6:00 AM45 °FSunny.2 mph19%30.30 "Hg10 mi
5:00 AM46 °FClear.8 mph17%30.27 "Hg10 mi
4:00 AM50 °FClear.10 mph13%30.24 "Hg10 mi
3:00 AM48 °FClear.7 mph17%30.24 "Hg10 mi
Weather by CustomWeather, © 2014

See weather overviewHow to use our weather pages